Regional Weather Roundup
Issued by NWS Cleveland, OH

Home | Current Version | Previous Version | Text Only | Print | Product List | Glossary Off
Versions: 1 2 3 4 5 6 7 8 9 10 11 12 13 14 15 16 17 18 19 20 21 22 23 24 25 26 27 28 29 30 31 32 33 34 35 36 37 38 39 40 41 42 43 44 45 46 47 48 49 50

000
ASUS41 KCLE 251802
RWRCLE
OHIO REGIONAL WEATHER ROUNDUP
NATIONAL WEATHER SERVICE CLEVELAND, OH
100 PM EST SAT FEB 25 2017

NOTE: "FAIR" INDICATES FEW OR NO CLOUDS BELOW 12,000 FEET WITH NO
SIGNIFICANT WEATHER AND/OR OBSTRUCTIONS TO VISIBILITY.

OHZ001>008-015>018-024>027-034-035-043-044-251900-
   NORTHWEST OHIO

CITY           SKY/WX    TMP DP  RH WIND       PRES   REMARKS
DEFIANCE       CLOUDY    29  21  72 W17G28    29.76R WCI  17
FINDLAY        CLOUDY    33  23  66 W26G38    29.74R WCI  20
TOLEDO EXPRESS CLOUDY    31  22  69 W23G29    29.71R WCI  18
TOLEDO EXEC    CLOUDY    33  25  72 W25G36    29.71R WCI  20
LIMA           CLOUDY    30  24  78 W28G37    29.77R WCI  15
$$

OHZ009>014-019>023-028>033-038-089-251900-
   NORTHEAST OHIO

CITY           SKY/WX    TMP DP  RH WIND       PRES   REMARKS
CLE-HOPKINS    CLOUDY    40  28  62 W20G26    29.68R
CLE-LAKEFRONT  CLOUDY    39  31  72 W21G28    29.65R
CUY CO. ARPT   CLOUDY    39  32  75 W23G35    29.64R
LORAIN-ELYRIA  CLOUDY    36  26  67 W20G31    29.68R
ASHTABULA      CLOUDY    40  32  73 W22G33    29.61R
AKRON-CANTON   CLOUDY    41  26  55 W22G31    29.65R
WOOSTER        CLOUDY    37  29  72 W24G35    29.69R
MANSFIELD      LGT SNOW  33  28  81 SW16G25   29.70R WCI  23
YOUNGSTOWN     CLOUDY    44  31  60 W23G31    29.62R
$$

OHZ042-051>053-060>062-070>072-077>081-251900-
  SOUTHWEST OHIO

CITY           SKY/WX    TMP DP  RH WIND       PRES   REMARKS
CINC-COVINGTON CLOUDY    31  22  69 W18G29    29.89R WCI  19
CINC-LUNKEN    CLOUDY    34  22  61 W18G29    29.91R WCI  23
HAMILTON       CLOUDY    34  21  59 W15G24    29.90R WCI  24
DAYTON         CLOUDY    30  20  66 W25G33    29.84R WCI  16
WRIGHT-PAT AFB CLOUDY    32  22  66 W20G30    29.84R WCI  20
DAYTON GENERAL CLOUDY    31  23  72 W16G29    29.84R WCI  20
WILMINGTON     CLOUDY    32  25  75 W22G35    29.83R WCI  19
$$

OHZ036-037-039>041-045>050-054>059-063>069-073>076-082>088-251900-
  CENTRAL AND SOUTHEAST OHIO

CITY           SKY/WX    TMP DP  RH WIND       PRES   REMARKS
COLUMBUS       FLURRIES  38  29  70 W16G26    29.77R
OSU AIRPORT    FLURRIES  36  28  73 W21G31    29.78R
BOLTON FIELD   NOT AVBL
RICKENBACK AFB FLURRIES  36  29  78 W24G31    29.80R
NEWARK         CLOUDY    39  26  59 SW17G30   29.76R
MARION         LGT SNOW  34  26  72 W24G35    29.75R WCI  21
LANCASTER      CLOUDY    38  27  64 W17G24    29.80R
ZANESVILLE     CLOUDY    41  26  55 W17G32    29.75R
NEW PHILLY     NOT AVBL
$$



USA.gov is the U.S. government's official web portal to all federal, state and local government web resources and services.